This demonstration page uses our WeatherBlox Daily Observations layout. Learn more.

Left ArrowRight Arrow

39.95238, -75.16362

Hourly Observations for May 28, 2016

Temp ( °F °C ) Dew Point ( °F °C ) Humidity (%) Winds ( mph kmh ) Pressure ( in mb ) Visibility ( mi km ) Precip ( " mm )
12:54 am 00:54 Partly Cloudy 73 22.8 60 15.6 64 64 S 8 13 30.10 1019 10 16 0.00 0.00
1:54 am 01:54 Partly Cloudy 72 22.2 58 14.4 61 61 SSW 8 13 30.10 1019 10 16 0.00 0.00
2:54 am 02:54 Partly Cloudy 70 21.1 58 14.4 66 66 S 7 11 30.10 1019 10 16 0.00 0.00
3:54 am 03:54 Mostly Clear 69 20.6 58 14.4 68 68 S 6 9 30.11 1020 10 16 0.00 0.00
4:54 am 04:54 Partly Cloudy 69 20.6 59 15 70 70 S 7 11 30.12 1020 10 16 0.00 0.00
5:54 am 05:54 Mostly Cloudy 68 20 59 15 73 73 S 6 9 30.14 1021 10 16 0.00 0.00
6:54 am 06:54 Mostly Cloudy 69 20.6 60 15.6 73 73 S 6 9 30.15 1021 10 16 0.00 0.00
7:54 am 07:54 Mostly Cloudy 73 22.8 61 16.1 66 66 SW 9 15 30.14 1021 10 16 0.00 0.00
8:54 am 08:54 Mostly Cloudy 75 23.9 61 16.1 62 62 WSW 10 17 30.15 1021 10 16 0.00 0.00
9:54 am 09:54 Partly Cloudy 78 25.6 63 17.2 60 60 WSW 8 13 30.16 1021 10 16 0.00 0.00
10:54 am 10:54 Mostly Sunny 81 27.2 64 17.8 57 57 WSW 7 11 30.16 1021 10 16 0.00 0.00
11:54 am 11:54 Sunny 83 28.3 65 18.3 55 55 WSW 7 11 30.16 1021 10 16 0.00 0.00
12:54 pm 12:54 Sunny 85 29.4 66 18.9 53 53 SW 9 15 30.14 1021 10 16 0.00 0.00
1:54 pm 13:54 Mostly Sunny 88 31.1 65 18.3 46 46 SSW 13 20 30.13 1020 10 16 0.00 0.00
2:54 pm 14:54 Mostly Sunny 90 32.2 65 18.3 44 44 WSW 15 24 30.12 1020 10 16 0.00 0.00
3:54 pm 15:54 Partly Cloudy 90 32.2 64 17.8 42 42 SW 16 26 30.11 1020 10 16 0.00 0.00
4:54 pm 16:54 Partly Cloudy 89 31.7 64 17.8 43 43 SSW 14 22 30.10 1019 10 16 0.00 0.00
5:54 pm 17:54 Partly Cloudy 88 31.1 65 18.3 46 46 SSW 12 19 30.09 1019 10 16 0.00 0.00
6:54 pm 18:54 Mostly Sunny 85 29.4 65 18.3 51 51 S 10 17 30.10 1019 10 16 0.00 0.00
7:54 pm 19:54 Mostly Sunny 82 27.8 64 17.8 55 55 S 8 13 30.11 1020 10 16 0.00 0.00
8:54 pm 20:54 Mostly Clear 79 26.1 60 15.6 52 52 S 13 20 30.13 1020 10 16 0.00 0.00
9:54 pm 21:54 Partly Cloudy 77 25 58 14.4 52 52 S 8 13 30.15 1021 10 16 0.00 0.00
10:54 pm 22:54 Partly Cloudy 74 23.3 58 14.4 57 57 SSW 6 9 30.15 1021 10 16 0.00 0.00
11:54 pm 23:54 Partly Cloudy 73 22.8 59 15 62 62 S 3 6 30.15 1021 10 16 0.00 0.00

Powered by AerisWeather